Time,TemperatureF,DewpointF,PressureIn,WindDirection,WindDirectionDegrees,WindSpeedMPH,WindSpeedGustMPH,Humidity,HourlyPrecipIn,Conditions,Clouds,dailyrainin,SolarRadiationWatts/m^2,SoftwareType,DateUTC
2013-12-01 00:01:00,24.4,22.4,30.29,SSE,155,0.0,0.0,92,0.00,,,0.00,0,Wunderground v.1.15,2013-12-01 05:01:00,
2013-12-01 00:03:00,24.4,22.4,30.29,SSE,155,0.0,0.0,92,0.00,,,0.00,0,Wunderground v.1.15,2013-12-01 05:03:00,
2013-12-01 00:04:00,24.4,22.4,30.29,SSE,155,0.0,0.0,92,0.00,,,0.00,0,Wunderground v.1.15,2013-12-01 05:04:00,
2013-12-01 00:09:00,24.3,22.3,30.28,SSE,155,0.0,0.0,92,0.00,,,0.00,0,Wunderground v.1.15,2013-12-01 05:09:00,
2013-12-01 00:11:00,24.3,22.3,30.28,SSE,155,0.0,0.0,92,0.00,,,0.00,0,Wunderground v.1.15,2013-12-01 05:11:00,
2013-12-01 00:16:00,24.1,22.1,30.28,SSE,155,0.0,0.0,92,0.00,,,0.00,0,Wunderground v.1.15,2013-12-01 05:16:00,
2013-12-01 00:22:00,23.9,21.7,30.28,SSE,155,0.0,0.0,91,0.00,,,0.00,0,Wunderground v.1.15,2013-12-01 05:22:00,
2013-12-01 00:27:00,23.7,21.5,30.28,SSE,155,0.0,0.0,91,0.00,,,0.00,0,Wunderground v.1.15,2013-12-01 05:27:00,
2013-12-01 00:33:00,23.6,21.6,30.27,SSE,155,0.0,0.0,92,0.00,,,0.00,0,Wunderground v.1.15,2013-12-01 05:33:00,
2013-12-01 00:39:00,23.7,21.7,30.27,SSE,155,0.0,0.0,92,0.00,,,0.00,0,Wunderground v.1.15,2013-12-01 05:39:00,
2013-12-01 00:44:00,23.7,21.7,30.27,SSE,155,0.0,0.0,92,0.00,,,0.00,0,Wunderground v.1.15,2013-12-01 05:44:00,
2013-12-01 00:49:00,23.6,21.6,30.27,SSE,155,0.0,0.0,92,0.00,,,0.00,0,Wunderground v.1.15,2013-12-01 05:49:00,
2013-12-01 00:54:00,23.5,21.5,30.27,SSE,155,0.0,0.0,92,0.00,,,0.00,0,Wunderground v.1.15,2013-12-01 05:54:00,
2013-12-01 00:59:00,23.3,21.3,30.27,SSE,155,0.0,0.0,92,0.00,,,0.00,0,Wunderground v.1.15,2013-12-01 05:59:00,
2013-12-01 01:04:00,23.2,21.2,30.27,SSE,155,0.0,0.0,92,0.00,,,0.00,0,Wunderground v.1.15,2013-12-01 06:04:00,
2013-12-01 01:09:00,23.1,21.1,30.27,SSE,155,0.0,0.0,92,0.00,,,0.00,0,Wunderground v.1.15,2013-12-01 06:09:00,
2013-12-01 01:14:00,23.1,21.1,30.27,SSE,155,0.0,0.0,92,0.00,,,0.00,0,Wunderground v.1.15,2013-12-01 06:14:00,
2013-12-01 01:20:00,23.1,21.1,30.26,SSE,155,0.0,0.0,92,0.00,,,0.00,0,Wunderground v.1.15,2013-12-01 06:20:00,
2013-12-01 01:25:00,23.1,21.1,30.26,SSE,155,0.0,0.0,92,0.00,,,0.00,0,Wunderground v.1.15,2013-12-01 06:25:00,
2013-12-01 01:31:00,23.1,21.1,30.26,SSE,155,0.0,0.0,92,0.00,,,0.00,0,Wunderground v.1.15,2013-12-01 06:31:00,
2013-12-01 01:36:00,23.2,21.2,30.26,SSE,155,0.0,0.0,92,0.00,,,0.00,0,Wunderground v.1.15,2013-12-01 06:36:00,
2013-12-01 01:42:00,23.4,21.7,30.26,SSE,155,0.0,0.0,93,0.00,,,0.00,0,Wunderground v.1.15,2013-12-01 06:42:00,
2013-12-01 01:47:00,23.5,21.8,30.26,SSE,155,0.0,0.0,93,0.00,,,0.00,0,Wunderground v.1.15,2013-12-01 06:47:00,
2013-12-01 01:52:00,23.6,21.9,30.26,SSE,155,0.0,0.0,93,0.00,,,0.00,0,Wunderground v.1.15,2013-12-01 06:52:00,
2013-12-01 01:58:00,23.8,22.1,30.26,SSE,155,0.0,0.0,93,0.00,,,0.00,0,Wunderground v.1.15,2013-12-01 06:58:00,
2013-12-01 02:03:00,23.9,22.2,30.26,SSE,155,0.0,0.0,93,0.00,,,0.00,0,Wunderground v.1.15,2013-12-01 07:03:00,
2013-12-01 02:09:00,24.1,22.4,30.25,SSE,155,0.0,0.0,93,0.00,,,0.00,0,Wunderground v.1.15,2013-12-01 07:09:00,
2013-12-01 02:15:00,24.2,22.5,30.25,SSE,155,0.0,0.0,93,0.00,,,0.00,0,Wunderground v.1.15,2013-12-01 07:15:00,
2013-12-01 02:20:00,24.4,22.7,30.25,SSE,155,0.0,0.0,93,0.00,,,0.00,0,Wunderground v.1.15,2013-12-01 07:20:00,
2013-12-01 02:26:00,24.5,22.8,30.25,SSE,155,0.0,0.0,93,0.00,,,0.00,0,Wunderground v.1.15,2013-12-01 07:26:00,
2013-12-01 02:31:00,24.6,22.9,30.25,SSE,155,0.0,0.0,93,0.00,,,0.00,0,Wunderground v.1.15,2013-12-01 07:31:00,
2013-12-01 02:37:00,24.7,23.0,30.25,SSE,155,0.0,0.0,93,0.00,,,0.00,0,Wunderground v.1.15,2013-12-01 07:37:00,
2013-12-01 02:42:00,24.8,23.1,30.25,SSE,155,0.0,0.0,93,0.00,,,0.00,0,Wunderground v.1.15,2013-12-01 07:42:00,
2013-12-01 02:47:00,24.9,23.2,30.25,SSE,155,0.0,0.0,93,0.00,,,0.00,0,Wunderground v.1.15,2013-12-01 07:47:00,
2013-12-01 02:53:00,24.9,23.2,30.25,SSE,155,0.0,0.0,93,0.00,,,0.00,0,Wunderground v.1.15,2013-12-01 07:53:00,
2013-12-01 02:58:00,24.8,23.1,30.25,SSE,155,0.0,0.0,93,0.00,,,0.00,0,Wunderground v.1.15,2013-12-01 07:58:00,
2013-12-01 03:03:00,24.8,23.1,30.25,SSE,155,0.0,0.0,93,0.00,,,0.00,0,Wunderground v.1.15,2013-12-01 08:03:00,
2013-12-01 03:09:00,24.8,23.1,30.24,SSE,155,0.0,0.0,93,0.00,,,0.00,0,Wunderground v.1.15,2013-12-01 08:09:00,
2013-12-01 03:14:00,24.8,23.1,30.24,SSE,155,0.0,0.0,93,0.00,,,0.00,0,Wunderground v.1.15,2013-12-01 08:14:00,
2013-12-01 03:19:00,24.8,23.1,30.24,SSE,155,0.0,0.0,93,0.00,,,0.00,0,Wunderground v.1.15,2013-12-01 08:19:00,
2013-12-01 03:24:00,24.9,23.2,30.24,SSE,155,0.0,0.0,93,0.00,,,0.00,0,Wunderground v.1.15,2013-12-01 08:24:00,
2013-12-01 03:29:00,24.9,23.2,30.24,SSE,155,0.0,0.0,93,0.00,,,0.00,0,Wunderground v.1.15,2013-12-01 08:29:00,
2013-12-01 03:35:00,25.0,23.3,30.23,SSE,155,0.0,0.0,93,0.00,,,0.00,0,Wunderground v.1.15,2013-12-01 08:35:00,
2013-12-01 03:40:00,25.1,23.4,30.23,SSE,155,0.0,0.0,93,0.00,,,0.00,0,Wunderground v.1.15,2013-12-01 08:40:00,
2013-12-01 03:46:00,25.2,23.5,30.23,SSE,155,0.0,0.0,93,0.00,,,0.00,0,Wunderground v.1.15,2013-12-01 08:46:00,
2013-12-01 03:51:00,25.3,23.6,30.23,SSE,155,0.0,0.0,93,0.00,,,0.00,0,Wunderground v.1.15,2013-12-01 08:51:00,
2013-12-01 03:56:00,25.4,23.7,30.23,SSE,155,0.0,0.0,93,0.00,,,0.00,0,Wunderground v.1.15,2013-12-01 08:56:00,
2013-12-01 04:01:00,25.5,24.0,30.22,SSE,155,0.0,0.0,94,0.00,,,0.00,0,Wunderground v.1.15,2013-12-01 09:01:00,
2013-12-01 04:02:00,25.5,24.0,30.22,SSE,155,0.0,0.0,94,0.00,,,0.00,0,Wunderground v.1.15,2013-12-01 09:02:00,
2013-12-01 04:07:00,25.7,24.2,30.22,SSE,155,0.0,0.0,94,0.00,,,0.00,0,Wunderground v.1.15,2013-12-01 09:07:00,
2013-12-01 04:12:00,25.8,24.3,30.22,SSE,155,0.0,0.0,94,0.00,,,0.00,0,Wunderground v.1.15,2013-12-01 09:12:00,
2013-12-01 04:17:00,26.1,24.6,30.22,SSE,155,0.0,0.0,94,0.00,,,0.00,0,Wunderground v.1.15,2013-12-01 09:17:00,
2013-12-01 04:23:00,26.2,24.7,30.22,SSE,155,0.0,0.0,94,0.00,,,0.00,0,Wunderground v.1.15,2013-12-01 09:23:00,
2013-12-01 04:29:00,26.5,25.0,30.22,SSE,155,0.0,0.0,94,0.00,,,0.00,0,Wunderground v.1.15,2013-12-01 09:29:00,
2013-12-01 04:35:00,26.7,25.2,30.21,SSE,155,0.0,0.0,94,0.00,,,0.00,0,Wunderground v.1.15,2013-12-01 09:35:00,
2013-12-01 04:40:00,26.8,25.3,30.21,SSE,155,0.0,0.0,94,0.00,,,0.00,0,Wunderground v.1.15,2013-12-01 09:40:00,
2013-12-01 04:45:00,26.9,25.4,30.21,SSE,155,0.0,0.0,94,0.00,,,0.00,0,Wunderground v.1.15,2013-12-01 09:45:00,
2013-12-01 04:50:00,26.9,25.4,30.21,SSE,155,0.0,0.0,94,0.00,,,0.00,0,Wunderground v.1.15,2013-12-01 09:50:00,
2013-12-01 04:55:00,26.9,25.4,30.21,SSE,155,0.0,0.0,94,0.00,,,0.00,0,Wunderground v.1.15,2013-12-01 09:55:00,
2013-12-01 05:00:00,26.9,25.4,30.21,SSE,155,0.0,0.0,94,0.00,,,0.00,0,Wunderground v.1.15,2013-12-01 10:00:00,
2013-12-01 05:06:00,26.9,25.4,30.21,SSE,155,0.0,0.0,94,0.00,,,0.00,0,Wunderground v.1.15,2013-12-01 10:06:00,
2013-12-01 05:11:00,26.9,25.4,30.21,SSE,155,0.0,0.0,94,0.00,,,0.00,0,Wunderground v.1.15,2013-12-01 10:11:00,
2013-12-01 05:16:00,26.9,25.4,30.21,SSE,155,0.0,0.0,94,0.00,,,0.00,0,Wunderground v.1.15,2013-12-01 10:16:00,
2013-12-01 05:22:00,27.0,25.5,30.21,SSE,155,0.0,0.0,94,0.00,,,0.00,0,Wunderground v.1.15,2013-12-01 10:22:00,
2013-12-01 05:27:00,27.1,25.6,30.20,SSE,155,0.0,0.0,94,0.00,,,0.00,0,Wunderground v.1.15,2013-12-01 10:27:00,
2013-12-01 05:32:00,27.2,25.7,30.20,SSE,155,0.0,0.0,94,0.00,,,0.00,0,Wunderground v.1.15,2013-12-01 10:32:00,
2013-12-01 05:37:00,27.4,25.9,30.20,SSE,155,0.0,0.0,94,0.00,,,0.00,0,Wunderground v.1.15,2013-12-01 10:37:00,
2013-12-01 05:43:00,27.5,26.0,30.20,SSE,155,0.0,0.0,94,0.00,,,0.00,0,Wunderground v.1.15,2013-12-01 10:43:00,
2013-12-01 05:49:00,27.7,26.2,30.20,SSE,155,0.0,0.0,94,0.00,,,0.00,0,Wunderground v.1.15,2013-12-01 10:49:00,
2013-12-01 05:54:00,27.9,26.4,30.20,SSE,155,0.0,0.0,94,0.00,,,0.00,0,Wunderground v.1.15,2013-12-01 10:54:00,
2013-12-01 05:59:00,28.0,26.5,30.20,SSE,155,0.0,0.0,94,0.00,,,0.00,0,Wunderground v.1.15,2013-12-01 10:59:00,
2013-12-01 06:05:00,28.2,26.7,30.20,SSE,155,0.0,0.0,94,0.00,,,0.00,0,Wunderground v.1.15,2013-12-01 11:05:00,
2013-12-01 06:10:00,28.4,26.9,30.20,SSE,155,0.0,0.0,94,0.00,,,0.00,0,Wunderground v.1.15,2013-12-01 11:10:00,
2013-12-01 06:16:00,28.5,27.0,30.20,SSE,155,0.0,0.0,94,0.00,,,0.00,0,Wunderground v.1.15,2013-12-01 11:16:00,
2013-12-01 06:21:00,28.7,27.2,30.20,SSE,155,0.0,0.0,94,0.00,,,0.00,0,Wunderground v.1.15,2013-12-01 11:21:00,
2013-12-01 06:26:00,28.8,27.3,30.20,SSE,155,0.0,0.0,94,0.00,,,0.00,0,Wunderground v.1.15,2013-12-01 11:26:00,
2013-12-01 06:32:00,29.1,27.6,30.20,SSE,155,0.0,0.0,94,0.00,,,0.00,0,Wunderground v.1.15,2013-12-01 11:32:00,
2013-12-01 06:37:00,29.2,27.7,30.20,SSE,155,0.0,0.0,94,0.00,,,0.00,0,Wunderground v.1.15,2013-12-01 11:37:00,
2013-12-01 06:42:00,29.3,27.8,30.20,SSE,155,0.0,0.0,94,0.00,,,0.00,0,Wunderground v.1.15,2013-12-01 11:42:00,
2013-12-01 06:47:00,29.5,28.0,30.20,SSE,155,0.0,0.0,94,0.00,,,0.00,0,Wunderground v.1.15,2013-12-01 11:47:00,
2013-12-01 06:52:00,29.6,28.1,30.20,SSE,155,0.0,0.0,94,0.00,,,0.00,0,Wunderground v.1.15,2013-12-01 11:52:00,
2013-12-01 06:57:00,29.7,28.2,30.20,SSE,155,0.0,0.0,94,0.00,,,0.00,0,Wunderground v.1.15,2013-12-01 11:57:00,
2013-12-01 07:03:00,29.9,28.4,30.20,SSE,155,0.0,0.0,94,0.00,,,0.00,0,Wunderground v.1.15,2013-12-01 12:03:00,
2013-12-01 07:08:00,30.0,28.5,30.20,SSE,155,0.0,0.0,94,0.00,,,0.00,0,Wunderground v.1.15,2013-12-01 12:08:00,
2013-12-01 07:13:00,30.2,28.9,30.20,SSE,155,0.0,0.0,95,0.00,,,0.00,0,Wunderground v.1.15,2013-12-01 12:13:00,
2013-12-01 07:18:00,30.3,29.0,30.19,SSE,155,0.0,0.0,95,0.00,,,0.00,0,Wunderground v.1.15,2013-12-01 12:18:00,
2013-12-01 07:23:00,30.5,29.0,30.19,SSE,155,0.0,0.0,94,0.00,,,0.00,0,Wunderground v.1.15,2013-12-01 12:23:00,
2013-12-01 07:28:00,30.6,29.1,30.19,SSE,155,0.0,0.0,94,0.00,,,0.00,0,Wunderground v.1.15,2013-12-01 12:28:00,
2013-12-01 07:33:00,30.8,29.5,30.19,SSE,162,0.0,0.0,95,0.00,,,0.00,0,Wunderground v.1.15,2013-12-01 12:33:00,
2013-12-01 07:38:00,31.0,29.7,30.19,SSE,162,0.0,0.0,95,0.00,,,0.00,0,Wunderground v.1.15,2013-12-01 12:38:00,
2013-12-01 07:43:00,31.2,29.7,30.19,SSE,162,0.0,0.0,94,0.00,,,0.00,5,Wunderground v.1.15,2013-12-01 12:43:00,
2013-12-01 07:49:00,31.5,30.0,30.19,SSE,162,0.0,0.0,94,0.00,,,0.00,7,Wunderground v.1.15,2013-12-01 12:49:00,
2013-12-01 07:54:00,31.7,30.2,30.19,SSE,162,0.0,0.0,94,0.00,,,0.00,9,Wunderground v.1.15,2013-12-01 12:54:00,
2013-12-01 07:59:00,32.0,30.5,30.19,SSE,162,0.0,0.0,94,0.00,,,0.00,12,Wunderground v.1.15,2013-12-01 12:59:00,
2013-12-01 08:04:00,32.2,30.7,30.19,SSE,162,0.0,0.0,94,0.00,,,0.00,16,Wunderground v.1.15,2013-12-01 13:04:00,
2013-12-01 08:10:00,32.5,30.7,30.19,SSE,162,0.0,0.0,93,0.00,,,0.00,25,Wunderground v.1.15,2013-12-01 13:10:00,
2013-12-01 08:16:00,32.6,30.8,30.19,SSE,162,0.0,0.0,93,0.00,,,0.00,25,Wunderground v.1.15,2013-12-01 13:16:00,
2013-12-01 08:22:00,32.8,31.0,30.19,SSE,162,0.0,0.0,93,0.00,,,0.00,26,Wunderground v.1.15,2013-12-01 13:22:00,
2013-12-01 08:27:00,33.1,31.3,30.19,SSE,162,0.0,0.0,93,0.00,,,0.00,30,Wunderground v.1.15,2013-12-01 13:27:00,
2013-12-01 08:32:00,33.3,31.2,30.19,SSE,162,0.0,0.0,92,0.00,,,0.00,33,Wunderground v.1.15,2013-12-01 13:32:00,
2013-12-01 08:37:00,33.6,31.5,30.19,SSE,162,0.0,0.0,92,0.00,,,0.00,39,Wunderground v.1.15,2013-12-01 13:37:00,
2013-12-01 08:43:00,33.9,31.6,30.19,SSE,162,0.0,0.0,91,0.00,,,0.00,42,Wunderground v.1.15,2013-12-01 13:43:00,
2013-12-01 08:48:00,34.3,31.9,30.19,SSE,162,0.0,0.0,91,0.00,,,0.00,44,Wunderground v.1.15,2013-12-01 13:48:00,
2013-12-01 08:53:00,34.6,32.0,30.19,SSE,162,0.0,0.0,90,0.00,,,0.00,49,Wunderground v.1.15,2013-12-01 13:53:00,
2013-12-01 08:58:00,34.9,32.0,30.19,SSE,162,0.0,0.0,89,0.00,,,0.00,51,Wunderground v.1.15,2013-12-01 13:58:00,
2013-12-01 09:03:00,35.2,32.0,30.19,SSE,162,0.0,0.0,88,0.00,,,0.00,51,Wunderground v.1.15,2013-12-01 14:03:00,
2013-12-01 09:09:00,35.7,32.5,30.18,SSE,162,0.0,0.0,88,0.00,,,0.00,47,Wunderground v.1.15,2013-12-01 14:09:00,
2013-12-01 09:14:00,35.9,32.1,30.19,SSE,162,0.0,0.0,86,0.00,,,0.00,51,Wunderground v.1.15,2013-12-01 14:14:00,
2013-12-01 09:19:00,36.3,31.9,30.19,SSE,162,0.0,0.0,84,0.00,,,0.00,51,Wunderground v.1.15,2013-12-01 14:19:00,
2013-12-01 09:24:00,36.7,32.0,30.19,South,169,0.0,0.0,83,0.00,,,0.00,54,Wunderground v.1.15,2013-12-01 14:24:00,
2013-12-01 09:29:00,37.0,32.3,30.18,South,169,0.0,0.0,83,0.00,,,0.00,56,Wunderground v.1.15,2013-12-01 14:29:00,
2013-12-01 09:34:00,37.4,32.1,30.18,SSW,198,0.0,2.0,81,0.00,,,0.00,56,Wunderground v.1.15,2013-12-01 14:34:00,
2013-12-01 09:39:00,37.7,31.5,30.18,SSW,198,0.0,2.0,78,0.00,,,0.00,62,Wunderground v.1.15,2013-12-01 14:39:00,
2013-12-01 09:44:00,38.1,31.8,30.18,SSW,198,0.0,2.0,78,0.00,,,0.00,69,Wunderground v.1.15,2013-12-01 14:44:00,
2013-12-01 09:49:00,38.6,31.7,30.18,SW,221,1.0,3.0,76,0.00,,,0.00,77,Wunderground v.1.15,2013-12-01 14:49:00,
2013-12-01 09:54:00,39.0,31.7,30.18,SW,224,0.0,1.0,75,0.00,,,0.00,91,Wunderground v.1.15,2013-12-01 14:54:00,
2013-12-01 09:59:00,39.3,31.7,30.18,SW,224,0.0,1.0,74,0.00,,,0.00,102,Wunderground v.1.15,2013-12-01 14:59:00,
2013-12-01 10:14:00,40.4,32.1,30.18,SW,221,0.0,0.0,72,0.00,,,0.00,125,Wunderground v.1.15,2013-12-01 15:14:00,
2013-12-01 10:37:00,41.7,31.9,30.18,WSW,249,0.0,1.0,68,0.00,,,0.00,121,Wunderground v.1.15,2013-12-01 15:37:00,
2013-12-01 10:43:00,41.8,31.6,30.18,WSW,248,1.0,2.0,67,0.00,,,0.00,146,Wunderground v.1.15,2013-12-01 15:43:00,
2013-12-01 10:49:00,42.1,32.3,30.17,WSW,248,0.0,2.0,68,0.00,,,0.00,149,Wunderground v.1.15,2013-12-01 15:49:00,
2013-12-01 10:54:00,42.3,32.1,30.17,WSW,239,0.0,0.0,67,0.00,,,0.00,174,Wunderground v.1.15,2013-12-01 15:54:00,
2013-12-01 10:59:00,42.5,32.3,30.17,WSW,239,0.0,1.0,67,0.00,,,0.00,137,Wunderground v.1.15,2013-12-01 15:59:00,
2013-12-01 11:05:00,42.7,31.7,30.17,SW,223,1.0,2.0,65,0.00,,,0.00,190,Wunderground v.1.15,2013-12-01 16:05:00,
2013-12-01 11:10:00,42.9,32.3,30.17,SSW,211,1.0,1.0,66,0.00,,,0.00,134,Wunderground v.1.15,2013-12-01 16:10:00,
2013-12-01 11:16:00,43.1,32.5,30.16,WSW,258,0.0,1.0,66,0.00,,,0.00,169,Wunderground v.1.15,2013-12-01 16:16:00,
2013-12-01 11:21:00,43.2,32.2,30.16,WSW,254,0.0,0.0,65,0.00,,,0.00,144,Wunderground v.1.15,2013-12-01 16:21:00,
2013-12-01 11:26:00,43.3,32.3,30.15,WSW,246,0.0,3.0,65,0.00,,,0.00,148,Wunderground v.1.15,2013-12-01 16:26:00,
2013-12-01 11:32:00,43.3,32.3,30.15,SW,225,1.0,3.0,65,0.00,,,0.00,146,Wunderground v.1.15,2013-12-01 16:32:00,
2013-12-01 11:37:00,43.3,32.3,30.15,SW,220,1.0,3.0,65,0.00,,,0.00,155,Wunderground v.1.15,2013-12-01 16:37:00,
2013-12-01 11:42:00,43.4,32.4,30.15,WSW,239,0.0,1.0,65,0.00,,,0.00,158,Wunderground v.1.15,2013-12-01 16:42:00,
2013-12-01 11:47:00,43.5,32.9,30.15,SW,235,0.0,1.0,66,0.00,,,0.00,181,Wunderground v.1.15,2013-12-01 16:47:00,
2013-12-01 11:52:00,43.7,33.1,30.14,WSW,240,0.0,3.0,66,0.00,,,0.00,234,Wunderground v.1.15,2013-12-01 16:52:00,
2013-12-01 11:58:00,44.1,33.1,30.14,SW,214,1.0,3.0,65,0.00,,,0.00,172,Wunderground v.1.15,2013-12-01 16:58:00,
2013-12-01 12:03:00,44.3,32.9,30.14,SW,231,1.0,3.0,64,0.00,,,0.00,202,Wunderground v.1.15,2013-12-01 17:03:00,
2013-12-01 12:08:00,44.5,33.1,30.14,SW,232,1.0,3.0,64,0.00,,,0.00,172,Wunderground v.1.15,2013-12-01 17:08:00,
2013-12-01 12:13:00,44.7,33.3,30.13,SW,219,1.0,6.0,64,0.00,,,0.00,163,Wunderground v.1.15,2013-12-01 17:13:00,
2013-12-01 12:18:00,44.7,33.3,30.13,WSW,239,1.0,6.0,64,0.00,,,0.00,155,Wunderground v.1.15,2013-12-01 17:18:00,
2013-12-01 12:24:00,44.8,33.0,30.13,SW,230,0.0,2.0,63,0.00,,,0.00,142,Wunderground v.1.15,2013-12-01 17:24:00,
2013-12-01 12:29:00,44.9,33.1,30.13,SW,218,1.0,3.0,63,0.00,,,0.00,134,Wunderground v.1.15,2013-12-01 17:29:00,
2013-12-01 12:35:00,44.9,33.1,30.12,SW,232,2.0,5.0,63,0.00,,,0.00,123,Wunderground v.1.15,2013-12-01 17:35:00,
2013-12-01 12:40:00,44.9,33.1,30.12,SW,217,2.0,2.0,63,0.00,,,0.00,114,Wunderground v.1.15,2013-12-01 17:40:00,
2013-12-01 12:45:00,44.9,33.1,30.12,SW,217,1.0,3.0,63,0.00,,,0.00,113,Wunderground v.1.15,2013-12-01 17:45:00,
2013-12-01 12:50:00,44.9,33.1,30.12,SSE,162,1.0,1.0,63,0.00,,,0.00,102,Wunderground v.1.15,2013-12-01 17:50:00,
2013-12-01 12:56:00,44.9,33.1,30.11,SW,222,1.0,1.0,63,0.00,,,0.00,69,Wunderground v.1.15,2013-12-01 17:56:00,
2013-12-01 13:01:00,44.9,33.1,30.11,SW,221,0.0,1.0,63,0.00,,,0.00,62,Wunderground v.1.15,2013-12-01 18:01:00,
2013-12-01 13:07:00,44.8,33.0,30.11,SW,217,0.0,3.0,63,0.00,,,0.00,65,Wunderground v.1.15,2013-12-01 18:07:00,
2013-12-01 13:12:00,44.8,33.4,30.11,SW,217,0.0,1.0,64,0.00,,,0.00,65,Wunderground v.1.15,2013-12-01 18:12:00,
2013-12-01 13:17:00,44.7,33.3,30.11,SW,217,0.0,1.0,64,0.00,,,0.00,76,Wunderground v.1.15,2013-12-01 18:17:00,
2013-12-01 13:22:00,44.7,33.3,30.11,SW,219,0.0,2.0,64,0.00,,,0.00,86,Wunderground v.1.15,2013-12-01 18:22:00,
2013-12-01 13:27:00,44.7,33.3,30.10,SW,219,1.0,3.0,64,0.00,,,0.00,77,Wunderground v.1.15,2013-12-01 18:27:00,
2013-12-01 13:33:00,44.8,33.4,30.10,WSW,257,0.0,1.0,64,0.00,,,0.00,74,Wunderground v.1.15,2013-12-01 18:33:00,
2013-12-01 13:38:00,44.9,33.5,30.10,SSW,211,0.0,1.0,64,0.00,,,0.00,81,Wunderground v.1.15,2013-12-01 18:38:00,
2013-12-01 13:44:00,44.9,33.5,30.09,SW,221,0.0,0.0,64,0.00,,,0.00,97,Wunderground v.1.15,2013-12-01 18:44:00,
2013-12-01 13:49:00,45.0,33.5,30.09,SW,220,0.0,3.0,64,0.00,,,0.00,100,Wunderground v.1.15,2013-12-01 18:49:00,
2013-12-01 13:54:00,45.1,33.2,30.09,SW,220,0.0,0.0,63,0.00,,,0.00,111,Wunderground v.1.15,2013-12-01 18:54:00,
2013-12-01 13:59:00,45.3,33.8,30.09,SW,224,0.0,1.0,64,0.00,,,0.00,91,Wunderground v.1.15,2013-12-01 18:59:00,
2013-12-01 14:04:00,45.4,33.5,30.09,SW,224,0.0,0.0,63,0.00,,,0.00,84,Wunderground v.1.15,2013-12-01 19:04:00,
2013-12-01 14:10:00,45.5,34.0,30.09,WSW,258,0.0,0.0,64,0.00,,,0.00,77,Wunderground v.1.15,2013-12-01 19:10:00,
2013-12-01 14:16:00,45.5,34.0,30.08,SW,226,0.0,1.0,64,0.00,,,0.00,74,Wunderground v.1.15,2013-12-01 19:16:00,
2013-12-01 14:21:00,45.5,34.4,30.08,WSW,239,0.0,0.0,65,0.00,,,0.00,77,Wunderground v.1.15,2013-12-01 19:21:00,
2013-12-01 14:27:00,45.5,33.6,30.08,WSW,238,0.0,1.0,63,0.00,,,0.00,76,Wunderground v.1.15,2013-12-01 19:27:00,
2013-12-01 14:33:00,45.6,33.7,30.08,WSW,238,0.0,0.0,63,0.00,,,0.00,88,Wunderground v.1.15,2013-12-01 19:33:00,
2013-12-01 14:38:00,45.7,33.8,30.07,WSW,239,0.0,0.0,63,0.00,,,0.00,81,Wunderground v.1.15,2013-12-01 19:38:00,
2013-12-01 14:40:00,45.7,33.8,30.07,SW,217,0.0,0.0,63,0.00,,,0.00,72,Wunderground v.1.15,2013-12-01 19:40:00,
2013-12-01 14:45:00,45.8,34.3,30.07,SW,217,0.0,0.0,64,0.00,,,0.00,49,Wunderground v.1.15,2013-12-01 19:45:00,
2013-12-01 14:50:00,45.8,34.3,30.07,SW,217,0.0,0.0,64,0.00,,,0.00,40,Wunderground v.1.15,2013-12-01 19:50:00,
2013-12-01 14:55:00,45.8,34.7,30.07,SW,217,0.0,0.0,65,0.00,,,0.00,39,Wunderground v.1.15,2013-12-01 19:55:00,
2013-12-01 15:00:00,45.8,34.3,30.07,SW,217,0.0,0.0,64,0.00,,,0.00,32,Wunderground v.1.15,2013-12-01 20:00:00,
2013-12-01 15:05:00,45.7,34.6,30.07,SW,217,0.0,0.0,65,0.00,,,0.00,28,Wunderground v.1.15,2013-12-01 20:05:00,
2013-12-01 15:10:00,45.6,34.1,30.07,SW,231,0.0,0.0,64,0.00,,,0.00,25,Wunderground v.1.15,2013-12-01 20:10:00,
2013-12-01 15:16:00,45.5,33.6,30.07,WSW,238,1.0,1.0,63,0.00,,,0.00,21,Wunderground v.1.15,2013-12-01 20:16:00,
2013-12-01 15:21:00,45.4,33.9,30.07,WSW,238,0.0,0.0,64,0.00,,,0.00,16,Wunderground v.1.15,2013-12-01 20:21:00,
2013-12-01 15:26:00,45.3,34.2,30.07,WSW,238,0.0,0.0,65,0.00,,,0.00,12,Wunderground v.1.15,2013-12-01 20:26:00,
2013-12-01 15:32:00,45.2,34.1,30.07,WSW,238,0.0,0.0,65,0.00,,,0.00,25,Wunderground v.1.15,2013-12-01 20:32:00,
2013-12-01 15:37:00,45.1,34.4,30.07,WSW,238,0.0,0.0,66,0.00,,,0.00,23,Wunderground v.1.15,2013-12-01 20:37:00,
2013-12-01 15:42:00,45.0,34.7,30.07,WSW,238,0.0,0.0,67,0.00,,,0.00,23,Wunderground v.1.15,2013-12-01 20:42:00,
2013-12-01 15:47:00,44.8,34.5,30.06,WSW,238,0.0,0.0,67,0.00,,,0.00,23,Wunderground v.1.15,2013-12-01 20:47:00,
2013-12-01 15:52:00,44.7,34.8,30.06,WSW,238,0.0,0.0,68,0.00,,,0.00,21,Wunderground v.1.15,2013-12-01 20:52:00,
2013-12-01 15:57:00,44.6,34.7,30.06,WSW,238,0.0,0.0,68,0.00,,,0.00,19,Wunderground v.1.15,2013-12-01 20:57:00,
2013-12-01 16:02:00,44.5,34.2,30.06,WSW,238,0.0,0.0,67,0.00,,,0.00,19,Wunderground v.1.15,2013-12-01 21:02:00,
2013-12-01 16:07:00,44.5,34.2,30.06,WSW,238,0.0,0.0,67,0.00,,,0.00,19,Wunderground v.1.15,2013-12-01 21:07:00,
2013-12-01 16:12:00,44.3,34.0,30.06,WSW,238,0.0,0.0,67,0.00,,,0.00,18,Wunderground v.1.15,2013-12-01 21:12:00,
2013-12-01 16:17:00,44.3,34.0,30.06,WSW,238,0.0,0.0,67,0.00,,,0.00,14,Wunderground v.1.15,2013-12-01 21:17:00,
2013-12-01 16:22:00,44.2,35.7,30.06,WSW,238,0.0,0.0,72,0.00,,,0.00,12,Wunderground v.1.15,2013-12-01 21:22:00,
2013-12-01 16:27:00,44.1,35.6,30.06,WSW,238,0.0,0.0,72,0.00,,,0.00,9,Wunderground v.1.15,2013-12-01 21:27:00,
2013-12-01 16:33:00,43.8,35.7,30.06,WSW,238,0.0,0.0,73,0.00,,,0.00,7,Wunderground v.1.15,2013-12-01 21:33:00,
2013-12-01 16:38:00,43.6,35.5,30.06,WSW,238,0.0,0.0,73,0.00,,,0.00,0,Wunderground v.1.15,2013-12-01 21:38:00,
2013-12-01 16:44:00,43.3,34.9,30.07,WSW,238,0.0,0.0,72,0.00,,,0.00,0,Wunderground v.1.15,2013-12-01 21:44:00,
2013-12-01 16:49:00,43.1,34.3,30.06,WSW,238,0.0,0.0,71,0.00,,,0.00,0,Wunderground v.1.15,2013-12-01 21:49:00,
2013-12-01 16:54:00,42.8,35.4,30.06,WSW,238,0.0,0.0,75,0.00,,,0.00,0,Wunderground v.1.15,2013-12-01 21:54:00,
2013-12-01 17:00:00,42.4,35.0,30.06,WSW,238,0.0,0.0,75,0.00,,,0.00,0,Wunderground v.1.15,2013-12-01 22:00:00,
2013-12-01 17:06:00,42.1,34.7,30.06,WSW,238,0.0,0.0,75,0.00,,,0.00,0,Wunderground v.1.15,2013-12-01 22:06:00,
2013-12-01 17:11:00,41.8,35.1,30.06,WSW,238,0.0,0.0,77,0.00,,,0.00,0,Wunderground v.1.15,2013-12-01 22:11:00,
2013-12-01 17:16:00,41.5,34.8,30.06,WSW,238,0.0,0.0,77,0.00,,,0.00,0,Wunderground v.1.15,2013-12-01 22:16:00,
2013-12-01 17:21:00,41.2,34.9,30.06,WSW,238,0.0,0.0,78,0.00,,,0.00,0,Wunderground v.1.15,2013-12-01 22:21:00,
2013-12-01 17:26:00,41.0,35.0,30.06,WSW,238,0.0,0.0,79,0.00,,,0.00,0,Wunderground v.1.15,2013-12-01 22:26:00,
2013-12-01 17:31:00,40.8,34.8,30.06,WSW,238,0.0,0.0,79,0.00,,,0.00,0,Wunderground v.1.15,2013-12-01 22:31:00,
2013-12-01 17:33:00,40.8,34.8,30.06,N/A,-737280,0.0,-999.0,79,0.00,,,0.00,0,Wunderground v.1.15,2013-12-01 22:33:00,
2013-12-01 17:38:00,40.8,34.8,30.06,N/A,-737280,0.0,-999.0,79,0.00,,,0.00,0,Wunderground v.1.15,2013-12-01 22:38:00,
2013-12-01 17:43:00,40.8,34.8,30.06,N/A,-737280,0.0,-999.0,79,0.00,,,0.00,0,Wunderground v.1.15,2013-12-01 22:43:00,
2013-12-01 17:48:00,39.9,34.5,30.06,N/A,-737280,0.0,-999.0,81,0.00,,,0.00,0,Wunderground v.1.15,2013-12-01 22:48:00,
2013-12-01 17:53:00,39.9,34.5,30.06,N/A,-737280,0.0,-999.0,81,0.00,,,0.00,0,Wunderground v.1.15,2013-12-01 22:53:00,
2013-12-01 17:58:00,39.9,34.5,30.06,N/A,-737280,0.0,-999.0,81,0.00,,,0.00,0,Wunderground v.1.15,2013-12-01 22:58:00,
2013-12-01 18:03:00,39.9,34.5,30.06,N/A,-737280,0.0,-999.0,81,0.00,,,0.00,0,Wunderground v.1.15,2013-12-01 23:03:00,
2013-12-01 18:08:00,39.9,34.5,30.06,N/A,-737280,0.0,-999.0,81,0.00,,,0.00,0,Wunderground v.1.15,2013-12-01 23:08:00,
2013-12-01 18:13:00,39.9,34.5,30.06,N/A,-737280,0.0,-999.0,81,0.00,,,0.00,0,Wunderground v.1.15,2013-12-01 23:13:00,
2013-12-01 18:18:00,39.2,34.2,30.05,N/A,-737280,0.0,-999.0,82,0.00,,,0.00,0,Wunderground v.1.15,2013-12-01 23:18:00,
2013-12-01 18:23:00,39.2,34.2,30.05,N/A,-737280,0.0,-999.0,82,0.00,,,0.00,0,Wunderground v.1.15,2013-12-01 23:23:00,
2013-12-01 18:35:00,39.0,34.3,30.05,WSW,238,0.0,0.0,83,0.00,,,0.00,0,Wunderground v.1.15,2013-12-01 23:35:00,
2013-12-01 18:40:00,38.9,33.9,30.05,WSW,238,0.0,0.0,82,0.00,,,0.00,0,Wunderground v.1.15,2013-12-01 23:40:00,
2013-12-01 18:46:00,38.8,34.1,30.05,WSW,238,0.0,0.0,83,0.00,,,0.00,0,Wunderground v.1.15,2013-12-01 23:46:00,
2013-12-01 18:52:00,38.6,33.9,30.05,WSW,238,0.0,0.0,83,0.00,,,0.00,0,Wunderground v.1.15,2013-12-01 23:52:00,
2013-12-01 18:57:00,38.3,33.3,30.05,WSW,238,0.0,0.0,82,0.00,,,0.00,0,Wunderground v.1.15,2013-12-01 23:57:00,
2013-12-01 19:03:00,38.1,33.4,30.06,WSW,238,0.0,0.0,83,0.00,,,0.00,0,Wunderground v.1.15,2013-12-02 00:03:00,
2013-12-01 19:08:00,37.9,33.2,30.06,WSW,238,0.0,0.0,83,0.00,,,0.00,0,Wunderground v.1.15,2013-12-02 00:08:00,
2013-12-01 19:14:00,37.6,32.9,30.06,WSW,238,0.0,0.0,83,0.00,,,0.00,0,Wunderground v.1.15,2013-12-02 00:14:00,
2013-12-01 19:20:00,37.5,33.4,30.05,WSW,238,0.0,0.0,85,0.00,,,0.00,0,Wunderground v.1.15,2013-12-02 00:20:00,
2013-12-01 19:25:00,37.4,33.3,30.05,WSW,238,0.0,0.0,85,0.00,,,0.00,0,Wunderground v.1.15,2013-12-02 00:25:00,
2013-12-01 19:30:00,37.4,33.6,30.06,WSW,238,0.0,0.0,86,0.00,,,0.00,0,Wunderground v.1.15,2013-12-02 00:30:00,
2013-12-01 19:36:00,37.3,33.5,30.06,WSW,238,0.0,0.0,86,0.00,,,0.00,0,Wunderground v.1.15,2013-12-02 00:36:00,
2013-12-01 19:42:00,37.3,33.8,30.06,WSW,238,0.0,0.0,87,0.00,,,0.00,0,Wunderground v.1.15,2013-12-02 00:42:00,
2013-12-01 19:47:00,37.4,33.9,30.06,WSW,238,0.0,0.0,87,0.00,,,0.00,0,Wunderground v.1.15,2013-12-02 00:47:00,
2013-12-01 19:52:00,37.4,33.9,30.06,WSW,238,0.0,0.0,87,0.00,,,0.00,0,Wunderground v.1.15,2013-12-02 00:52:00,
2013-12-01 19:58:00,37.5,34.0,30.05,WSW,238,0.0,0.0,87,0.00,,,0.00,0,Wunderground v.1.15,2013-12-02 00:58:00,
2013-12-01 20:03:00,37.5,34.0,30.05,WSW,238,0.0,0.0,87,0.00,,,0.00,0,Wunderground v.1.15,2013-12-02 01:03:00,
2013-12-01 20:08:00,37.6,34.1,30.05,WSW,238,0.0,0.0,87,0.00,,,0.00,0,Wunderground v.1.15,2013-12-02 01:08:00,
2013-12-01 20:14:00,37.7,34.2,30.06,WSW,238,0.0,0.0,87,0.00,,,0.00,0,Wunderground v.1.15,2013-12-02 01:14:00,
2013-12-01 20:19:00,37.7,34.2,30.05,WSW,238,0.0,0.0,87,0.00,,,0.00,0,Wunderground v.1.15,2013-12-02 01:19:00,
2013-12-01 20:24:00,37.7,34.2,30.05,WSW,238,0.0,0.0,87,0.00,,,0.00,0,Wunderground v.1.15,2013-12-02 01:24:00,
2013-12-01 20:29:00,37.7,34.2,30.05,WSW,238,0.0,0.0,87,0.00,,,0.00,0,Wunderground v.1.15,2013-12-02 01:29:00,
2013-12-01 20:34:00,37.7,34.2,30.05,WSW,238,0.0,0.0,87,0.00,,,0.00,0,Wunderground v.1.15,2013-12-02 01:34:00,
2013-12-01 20:39:00,37.7,34.2,30.04,WSW,238,0.0,0.0,87,0.00,,,0.00,0,Wunderground v.1.15,2013-12-02 01:39:00,
2013-12-01 20:44:00,37.7,34.2,30.04,WSW,238,0.0,0.0,87,0.00,,,0.00,0,Wunderground v.1.15,2013-12-02 01:44:00,
2013-12-01 20:49:00,37.6,34.1,30.05,WSW,238,0.0,0.0,87,0.00,,,0.00,0,Wunderground v.1.15,2013-12-02 01:49:00,
2013-12-01 20:54:00,37.6,34.1,30.05,WSW,238,0.0,0.0,87,0.00,,,0.00,0,Wunderground v.1.15,2013-12-02 01:54:00,
2013-12-01 21:00:00,37.6,34.1,30.05,WSW,238,0.0,0.0,87,0.00,,,0.00,0,Wunderground v.1.15,2013-12-02 02:00:00,
2013-12-01 21:05:00,37.6,34.1,30.05,WSW,238,0.0,0.0,87,0.00,,,0.00,0,Wunderground v.1.15,2013-12-02 02:05:00,
2013-12-01 21:10:00,37.6,34.1,30.05,WSW,238,0.0,0.0,87,0.00,,,0.00,0,Wunderground v.1.15,2013-12-02 02:10:00,
2013-12-01 21:16:00,37.5,34.0,30.05,WSW,238,0.0,0.0,87,0.00,,,0.00,0,Wunderground v.1.15,2013-12-02 02:16:00,
2013-12-01 21:21:00,37.5,34.0,30.04,WSW,238,0.0,0.0,87,0.00,,,0.00,0,Wunderground v.1.15,2013-12-02 02:21:00,
2013-12-01 21:26:00,37.5,34.0,30.04,WSW,238,0.0,0.0,87,0.00,,,0.00,0,Wunderground v.1.15,2013-12-02 02:26:00,
2013-12-01 21:31:00,37.5,34.0,30.04,WSW,238,0.0,0.0,87,0.00,,,0.00,0,Wunderground v.1.15,2013-12-02 02:31:00,
2013-12-01 21:36:00,37.6,34.4,30.04,WSW,238,0.0,0.0,88,0.00,,,0.00,0,Wunderground v.1.15,2013-12-02 02:36:00,
2013-12-01 21:42:00,37.6,34.4,30.04,WSW,238,0.0,0.0,88,0.00,,,0.00,0,Wunderground v.1.15,2013-12-02 02:42:00,
2013-12-01 21:47:00,37.7,34.5,30.04,WSW,238,0.0,0.0,88,0.00,,,0.00,0,Wunderground v.1.15,2013-12-02 02:47:00,
2013-12-01 21:52:00,37.7,34.5,30.04,WSW,238,0.0,0.0,88,0.00,,,0.00,0,Wunderground v.1.15,2013-12-02 02:52:00,
2013-12-01 21:57:00,37.7,34.5,30.04,WSW,238,0.0,0.0,88,0.00,,,0.00,0,Wunderground v.1.15,2013-12-02 02:57:00,
2013-12-01 22:02:00,37.6,34.4,30.04,WSW,238,0.0,0.0,88,0.00,,,0.00,0,Wunderground v.1.15,2013-12-02 03:02:00,
2013-12-01 22:07:00,37.6,34.4,30.04,WSW,238,0.0,0.0,88,0.00,,,0.00,0,Wunderground v.1.15,2013-12-02 03:07:00,
2013-12-01 22:13:00,37.6,34.4,30.04,WSW,238,0.0,0.0,88,0.00,,,0.00,0,Wunderground v.1.15,2013-12-02 03:13:00,
2013-12-01 22:18:00,37.6,34.4,30.04,WSW,238,0.0,0.0,88,0.00,,,0.00,0,Wunderground v.1.15,2013-12-02 03:18:00,
2013-12-01 22:23:00,37.6,34.4,30.04,WSW,238,0.0,0.0,88,0.00,,,0.00,0,Wunderground v.1.15,2013-12-02 03:23:00,
2013-12-01 22:28:00,37.6,34.4,30.03,WSW,238,0.0,0.0,88,0.00,,,0.00,0,Wunderground v.1.15,2013-12-02 03:28:00,
2013-12-01 22:33:00,37.6,34.4,30.03,WSW,238,0.0,0.0,88,0.00,,,0.00,0,Wunderground v.1.15,2013-12-02 03:33:00,
2013-12-01 22:39:00,37.6,34.7,30.03,WSW,238,0.0,0.0,89,0.00,,,0.00,0,Wunderground v.1.15,2013-12-02 03:39:00,
2013-12-01 22:44:00,37.6,34.4,30.03,WSW,238,0.0,0.0,88,0.00,,,0.00,0,Wunderground v.1.15,2013-12-02 03:44:00,
2013-12-01 22:49:00,37.6,34.4,30.03,WSW,238,0.0,0.0,88,0.00,,,0.00,0,Wunderground v.1.15,2013-12-02 03:49:00,
2013-12-01 22:55:00,37.5,34.3,30.03,WSW,238,0.0,0.0,88,0.00,,,0.00,0,Wunderground v.1.15,2013-12-02 03:55:00,
2013-12-01 23:00:00,37.5,34.3,30.03,WSW,238,0.0,0.0,88,0.00,,,0.00,0,Wunderground v.1.15,2013-12-02 04:00:00,
2013-12-01 23:05:00,37.5,34.3,30.03,WSW,238,0.0,0.0,88,0.00,,,0.00,0,Wunderground v.1.15,2013-12-02 04:05:00,
2013-12-01 23:10:00,37.5,34.3,30.03,WSW,238,0.0,0.0,88,0.00,,,0.00,0,Wunderground v.1.15,2013-12-02 04:10:00,
2013-12-01 23:16:00,37.5,34.3,30.03,WSW,238,0.0,0.0,88,0.00,,,0.00,0,Wunderground v.1.15,2013-12-02 04:16:00,
2013-12-01 23:21:00,37.5,34.6,30.03,WSW,238,0.0,0.0,89,0.00,,,0.00,0,Wunderground v.1.15,2013-12-02 04:21:00,
2013-12-01 23:26:00,37.5,34.6,30.03,WSW,238,0.0,0.0,89,0.00,,,0.00,0,Wunderground v.1.15,2013-12-02 04:26:00,
2013-12-01 23:32:00,37.5,34.6,30.02,WSW,238,0.0,0.0,89,0.00,,,0.00,0,Wunderground v.1.15,2013-12-02 04:32:00,
2013-12-01 23:37:00,37.5,34.6,30.02,WSW,238,0.0,0.0,89,0.00,,,0.00,0,Wunderground v.1.15,2013-12-02 04:37:00,
2013-12-01 23:42:00,37.5,34.6,30.03,WSW,238,0.0,0.0,89,0.00,,,0.00,0,Wunderground v.1.15,2013-12-02 04:42:00,
2013-12-01 23:48:00,37.5,34.6,30.02,WSW,238,0.0,0.0,89,0.00,,,0.00,0,Wunderground v.1.15,2013-12-02 04:48:00,
2013-12-01 23:53:00,37.6,34.7,30.02,WSW,238,0.0,0.0,89,0.00,,,0.00,0,Wunderground v.1.15,2013-12-02 04:53:00,
2013-12-01 23:58:00,37.6,34.9,30.02,WSW,238,0.0,0.0,90,0.00,,,0.00,0,Wunderground v.1.15,2013-12-02 04:58:00,